#timestamp,LO_Frequency,Hit,StdDev 
1560672015.8,286046999.4,N
1560672035.6,286046998.9,N
1560672055.5,286047000.9,N
1560672075.3,286047001.0,N
1560672095.1,286047000.9,N
1560672115.9,286046998.7,N
1560672135.7,286046998.2,N
1560672155.5,286046998.6,N
1560672175.4,286046999.9,N
1560672195.2,286047000.1,N
1560672215.1,286047000.1,N
1560672216.0,286047000.1,N
1560672235.8,286047000.3,N
1560672255.6,286047002.1,N
1560672275.5,286047001.5,N
1560672295.3,286047001.4,N
1560672315.1,286047004.2,N
1560672335.9,286047004.2,N
1560672355.7,286047003.7,N
1560672375.6,286047004.1,N
1560672395.4,286047001.5,N
1560672415.1,286047002.1,N
1560672435.9,286047001.6,N
1560672455.7,286047002.7,N
1560672475.5,286047002.5,N
1560672495.4,286047001.4,N
1560672515.2,286047002.6,N
1560672535.0,286047001.8,N
1560672535.9,286047001.8,N
1560672555.8,286047002.3,N
1560672575.6,286047002.5,N
1560672595.5,286047001.8,N
1560672615.3,286047002.2,N
1560672635.1,286046999.8,N
1560672655.9,286047002.3,N
1560672675.7,286047002.2,N
1560672695.5,286047001.7,N
1560672715.4,286047001.6,N
1560672735.2,286047003.9,Y
1560672755.1,286047001.1,P
1560672756.0,286047001.1,N
1560672775.8,286047000.5,N
1560672795.6,286046999.7,N
1560672815.5,286047000.2,N
1560672835.3,286047000.1,N
1560672855.2,286046999.7,N
1560672875.1,286047002.4,Y
1560672895.9,286046999.9,P
1560672915.7,286047001.2,P
1560672935.5,286047000.9,N
1560672955.4,286047000.5,N
1560672975.2,286047000.1,N
1560672995.0,286047000.0,N
1560672995.9,286047000.0,N
1560673015.8,286047000.7,N
1560673035.6,286046998.3,Y
1560673055.5,286046998.6,P
1560673075.3,286047000.7,N
1560673095.1,286047000.5,N
1560673115.9,286047000.6,N
1560673135.7,286047002.4,Y
1560673155.6,286047002.2,P
1560673175.4,286047000.9,N
1560673195.2,286046996.9,P
1560673215.1,286046997.0,N
1560673216.0,286046997.0,N
1560673235.8,286046999.0,N
1560673255.7,286047000.7,N
1560673275.5,286047000.5,N
1560673295.3,286047000.4,N
1560673315.2,286047001.3,N
1560673335.0,286047002.1,N
1560673335.9,286047002.1,N
1560673355.7,286047000.1,N
1560673375.6,286047002.7,N
1560673395.4,286047004.4,N
1560673415.3,286047002.4,N
1560673435.1,286047002.0,N
1560673455.8,286047000.3,N
1560673475.7,286047000.2,N
1560673495.5,286047001.7,N
1560673515.4,286047002.6,N
1560673535.2,286046998.2,N
1560673555.0,286046998.3,N
1560673555.9,286046998.3,N
1560673575.8,286046998.3,N
1560673595.9,286046999.0,N
1560673615.7,286046998.5,N
1560673635.6,286046999.3,N
1560673655.4,286046998.9,N
1560673675.2,286047000.6,N
1560673695.1,286047000.9,N
1560673696.0,286047000.9,N
1560673715.8,286047000.3,N
1560673735.6,286047001.2,N
1560673755.5,286047000.8,N
1560673775.3,286047000.7,N
1560673795.1,286047000.7,N
1560673815.9,286046998.7,N
1560673835.7,286047000.6,N
1560673855.6,286047000.5,N
1560673875.4,286047000.7,N
1560673895.2,286047000.0,N
1560673915.1,286047002.8,N
1560673916.0,286047002.8,N
1560673935.8,286047002.5,N
1560673955.7,286047000.4,N
1560673975.5,286046999.9,N
1560673995.3,286047000.0,N
1560674015.2,286047002.8,N
1560674035.0,286047000.0,N
1560674035.9,286047000.0,N
1560674055.8,286047000.3,N
1560674075.6,286046998.2,N
1560674095.4,286047000.0,N
1560674115.3,286047002.5,N
1560674135.1,286047000.1,N
1560674155.8,286047002.1,N
1560674175.7,286047001.9,N
1560674195.5,286047004.1,Y
1560674215.4,286047001.5,P
1560674235.2,286047002.2,P
1560674255.0,286047001.9,P
1560674255.9,286047001.9,Y
1560674275.8,286046998.7,P
1560674295.6,286047000.8,N
1560674315.4,286046998.7,N
1560674335.3,286046999.1,N
1560674355.1,286046998.2,N
1560674375.9,286046998.3,N
1560674395.7,286047000.7,N
1560674415.5,286047002.4,N
1560674435.4,286047002.4,N
1560674455.2,286047002.8,N
1560674475.1,286047002.1,N
1560674476.0,286047002.1,N
1560674495.8,286047001.9,N
1560674515.6,286047004.2,N
1560674535.5,286047005.6,Y
1560674555.3,286047004.1,P
1560674575.1,286047004.0,N
1560674595.9,286047003.7,N
1560674615.7,286047003.9,N
1560674635.6,286047002.8,N
1560674655.4,286047001.9,N
1560674675.2,286046999.7,N
1560674695.1,286047000.5,N
1560674696.0,286047000.5,N
1560674715.8,286047000.4,N
1560674735.6,286047001.2,N
1560674755.5,286046999.0,N
1560674775.3,286046996.9,N
1560674795.2,286046999.6,N
1560674815.9,286046999.0,N
1560674835.7,286046996.5,N
1560674855.6,286046996.7,N
1560674875.4,286046996.5,N
1560674895.2,286046999.5,N
1560674915.1,286046999.2,N
1560674916.0,286046999.2,N
1560674935.8,286046999.1,N
1560674955.7,286046996.7,N
1560674975.5,286046997.8,N
1560674995.3,286046997.4,N
1560675015.2,286046997.3,N
1560675035.0,286046995.0,N
1560675035.9,286046995.0,N
1560675055.8,286046997.4,N
1560675075.6,286046997.1,N
1560675095.4,286046995.1,N
1560675115.3,286046995.4,N
1560675135.1,286046997.4,N
1560675155.8,286046997.5,N
1560675175.7,286046997.6,N
1560675195.5,286046994.9,N
1560675215.4,286046997.3,N
1560675235.2,286046997.9,N
1560675255.0,286046995.7,N
1560675255.9,286046995.7,N
1560675275.8,286046995.9,N
1560675295.6,286046995.4,Y
1560675315.5,286046999.4,P
1560675335.3,286046999.4,N
1560675355.1,286046999.5,N
1560675375.9,286046998.1,N
1560675395.7,286046998.5,N
1560675415.5,286047002.4,N
1560675435.4,286047002.4,N
1560675455.2,286047000.9,N
1560675475.0,286047000.5,N
1560675476.0,286047000.5,N
1560675495.8,286047002.5,N
1560675515.6,286047000.1,N
1560675535.5,286047002.8,N
1560675555.3,286047000.6,N
1560675575.1,286047001.0,N
1560675595.9,286047000.2,N
